SCP
0 0 0 0 0 0 0 0 0 0 0 0 0 0 0 0 0 0 0 0 0 0 0 0 0 0 0 0 0 0 0 0 0
0 0 0 0 0 1 0 0 0 0 0 0 0 0 0 0 0 0 0 0 0 0 0 0 0 0 0 0 0 0 0 0 0
0 0 0 0 0 0 0 0 0 -0 -0 -0 -0 0 0 0 0 0 0 0 0 0 0 0 0 0 0 0 0 0 0 0 0
0 0 0 1 1 1 1 1 0 0 -0 -0 -0 -0 0 0 0 0 0 0 0 0 1 1 1 1 1 1 0 0 0 1 0
0 0 0 1 1 1 1 1 1 1 1 0 0 -0 1 1 0 1 1 1 0 1 1 1 1 1 1 1 1 0 0 0 0
0 0 1 0 1 1 1 0 0 0 1 0 0 0 1 1 0 0 0 0 -0 0 0 1 1 1 1 1 1 0 0 0 0
1 1 0 0 0 0 0 0 0 0 0 0 0 0 0 1 0 0 0 1 0 0 1 1 1 1 1 1 1 1 0 0 0
0 0 0 0 0 0 0 0 0 0 0 0 0 0 0 0 0 1 1 1 1 1 1 1 1 1 1 1 0 1 1 0 0
0 0 0 0 0 0 0 0 0 0 0 0 0 0 0 0 0 0 0 0 0 1 1 2 2 1 1 0 0 0 0 0 1
0 0 0 0 0 0 0 0 0 0 0 0 0 0 0 0 0 0 0 0 0 0 1 1 1 2 2 1 1 0 0 0 0
0 0 0 0 0 0 0 0 0 0 0 0 0 0 0 0 0 0 0 0 0 0 0 0 1 1 2 1 1 0 0 0 0
0 0 0 0 0 0 0 0 0 0 0 0 0 0 0 0 0 0 0 0 0 0 0 0 0 1 1 1 1 0 0 0 0
0 0 0 0 0 0 0 0 0 0 0 0 0 0 0 0 0 0 0 0 0 0 0 0 0 0 1 1 1 0 0 0 0
0 0 0 0 0 0 0 0 0 0 0 0 0 0 0 0 0 0 0 0 0 0 0 0 0 0 0 0 0 1 0 0 0
0 0 0 0 0 0 0 0 0 0 0 0 0 0 0 0 0 0 0 0 0 0 0 0 0 0 0 0 0 0 0 0 0
0 0 0 0 0 0 0 0 0 0 0 0 0 0 0 0 0 0 0 0 0 0 0 0 0 0 0 0 0 0 0 0 0
0 0 0 0 0 0 0 0 0 0 0 0 0 0 0 0 0 0 0 0 0 0 0 0 0 0 0 0 0 0 0 0 0
0 0 0 0 0 0 0 0 0 0 0 0 0 0 0 0 0 0 0 0 0 0 0 0 0 0 0 0 0 0 0 0 0
0 0 0 0 0 0 0 0 0 0 0 0 0 0 0 0 0 0 0 0 0 0 0 0 -0 0 0 0 0 0 0 0 0
0 0 0 0 0 0 0 0 0 0 0 0 0 0 0 0 0 0 0 0 0 0 0 0 0 -0 0 0 0 0 0 0 0
Wind_Speed_500mb
10 18 20 15 13 15 12 5 9 17 26 24 19 21 28 31 24 33 30 26 31 28 30 30 32 29 30 32 35 37 38 38 43
9 11 17 21 11 32 39 32 28 28 27 19 15 15 20 25 33 40 22 17 24 23 24 24 24 32 35 36 36 36 40 45 44
14 12 14 13 16 39 37 30 26 31 33 25 19 8 19 20 19 26 19 25 23 25 26 25 22 30 34 37 41 41 42 42 46
16 11 12 10 23 34 35 29 28 28 27 21 15 14 17 20 21 19 20 22 24 24 27 26 25 30 31 33 37 40 46 50 41
13 12 12 9 15 23 25 23 22 25 25 22 19 18 17 20 23 23 21 22 24 22 22 23 25 31 36 33 31 35 44 51 49
25 16 12 13 14 18 20 16 14 13 13 14 11 15 24 22 21 22 17 21 33 31 21 20 24 29 33 33 34 38 43 49 55
27 27 25 23 25 22 18 17 14 10 16 25 30 27 30 33 33 28 27 22 28 33 27 26 27 28 28 30 34 40 42 40 48
37 31 37 35 30 26 22 18 15 13 17 24 26 31 42 48 43 37 36 39 38 37 38 37 38 36 35 36 38 37 37 38 35
35 32 30 29 24 21 21 23 26 31 35 39 41 39 40 40 44 52 49 47 46 46 43 42 40 37 36 38 39 37 33 34 34
27 23 23 23 24 28 30 33 37 43 47 50 53 55 54 54 54 54 60 66 68 66 55 52 48 44 42 42 40 37 32 29 32
18 18 21 24 27 31 35 41 45 49 50 52 54 56 59 61 61 60 61 63 67 71 75 67 61 55 49 49 43 34 37 40 42
13 15 19 25 32 38 41 44 47 47 44 44 45 45 47 49 51 58 63 69 70 69 68 70 68 64 62 61 57 48 41 39 40
12 17 24 30 34 35 36 37 35 35 34 34 38 43 47 51 53 53 57 59 61 64 72 69 66 62 62 68 67 66 61 52 51
15 22 28 33 30 26 28 29 31 35 37 38 42 46 51 56 59 62 62 58 57 60 60 58 66 63 62 62 66 75 76 70 67
14 19 21 19 19 21 25 31 37 37 39 46 53 58 57 58 59 58 59 59 63 56 56 58 57 61 70 74 74 76 78 77 75
17 19 20 20 24 28 32 37 37 41 47 56 58 54 56 60 60 56 54 54 54 64 56 53 55 41 43 47 50 54 68 79 77
17 19 20 24 28 31 33 39 39 44 53 56 50 54 57 57 59 58 53 51 49 44 45 40 43 42 43 40 40 42 44 42 47
12 16 21 27 30 33 36 40 41 46 55 50 48 51 58 58 58 55 54 50 45 42 39 46 42 41 44 47 52 51 50 47 39
14 20 25 29 32 36 37 39 41 48 56 46 44 48 50 51 52 52 52 54 52 39 32 25 30 36 41 44 52 52 56 61 61
15 20 28 32 34 39 39 38 41 46 57 54 49 46 46 50 51 51 50 48 48 45 24 17 28 37 33 32 38 42 45 46 51
Wind_Direction_500mb
156 143 129 126 119 99 104 93 291 306 312 328 327 325 304 288 280 310 311 280 265 277 278 278 265 251 254 265 264 258 260 257 251
141 135 115 59 105 102 89 82 76 61 41 31 16 345 321 291 288 313 298 279 282 282 286 275 264 262 263 261 260 260 258 257 256
97 87 104 126 116 92 93 90 76 56 43 28 10 346 327 314 300 316 319 300 308 290 304 293 279 274 272 267 259 256 256 258 256
105 98 104 93 87 82 69 72 65 54 42 35 30 354 333 329 329 322 316 318 318 312 299 298 285 284 284 274 265 260 252 253 259
119 124 116 101 91 86 64 63 51 41 32 25 10 358 354 352 347 338 341 354 351 331 320 302 287 278 278 274 271 264 256 252 248
121 114 91 82 71 56 33 40 30 16 4 346 337 329 315 320 323 328 327 353 343 337 327 305 297 289 285 282 277 274 270 260 247
115 113 90 69 58 49 35 18 4 329 313 303 300 303 299 303 311 310 303 292 317 324 314 317 320 321 326 322 305 287 278 275 255
96 82 78 74 67 59 48 33 14 343 309 305 308 305 295 299 300 284 283 288 292 296 291 293 296 298 303 305 306 307 290 272 270
78 70 63 57 48 32 16 356 339 325 316 310 307 304 300 291 289 288 281 277 275 276 277 286 284 292 296 292 286 284 282 280 271
73 60 46 30 15 359 343 328 318 311 309 307 303 301 298 295 290 283 275 278 281 283 274 263 262 273 289 292 281 273 265 265 268
61 38 15 358 347 339 334 327 322 316 310 305 302 300 295 293 291 289 284 279 276 272 274 277 269 261 267 272 270 274 272 272 271
40 16 357 345 337 333 331 329 326 321 320 320 317 312 306 304 301 294 289 284 282 278 276 271 268 263 259 261 263 263 267 267 266
349 340 336 333 333 334 333 333 331 330 329 327 323 322 313 307 305 303 298 297 295 286 277 276 272 268 258 259 259 258 258 258 265
327 333 333 331 335 340 336 331 326 326 331 332 329 322 318 312 305 299 289 291 293 293 289 280 272 266 265 263 260 259 259 257 256
340 341 344 345 346 346 347 349 348 344 339 333 330 328 328 328 323 316 303 286 274 281 286 287 280 274 265 264 268 266 263 264 261
358 353 356 356 354 352 348 345 343 343 343 340 337 338 338 337 332 328 322 316 301 274 273 285 285 278 277 275 273 272 271 269 267
358 358 1 356 355 353 351 349 348 350 348 346 344 341 345 344 341 337 332 324 316 308 272 275 282 289 281 278 280 277 274 275 276
20 12 11 9 5 1 356 355 355 357 354 349 343 348 351 348 345 344 339 332 324 313 295 262 272 283 285 284 281 278 278 278 271
57 35 20 11 7 3 360 358 359 0 360 356 349 349 351 353 352 355 353 347 345 343 323 264 269 279 275 283 283 286 278 272 269
44 28 21 15 11 7 2 1 1 0 3 9 359 356 352 351 353 353 354 359 357 354 359 309 290 288 288 290 288 290 286 274 264
Wind_Speed_850mb
10 18 20 15 13 15 12 5 9 17 26 24 19 21 28 31 24 33 30 26 31 28 30 30 32 29 30 32 35 37 38 38 43
9 11 17 21 11 32 39 32 28 28 27 19 15 15 20 25 33 40 22 17 24 23 24 24 24 32 35 36 36 36 40 45 44
14 12 14 13 16 39 37 30 26 31 33 25 19 8 19 20 19 26 19 25 23 25 26 25 22 30 34 37 41 41 42 42 46
16 11 12 10 23 34 35 29 28 28 27 21 15 14 17 20 21 19 20 22 24 24 27 26 25 30 31 33 37 40 46 50 41
13 12 12 9 15 23 25 23 22 25 25 22 19 18 17 20 23 23 21 22 24 22 22 23 25 31 36 33 31 35 44 51 49
25 16 12 13 14 18 20 16 14 13 13 14 11 15 24 22 21 22 17 21 33 31 21 20 24 29 33 33 34 38 43 49 55
27 27 25 23 25 22 18 17 14 10 16 25 30 27 30 33 33 28 27 22 28 33 27 26 27 28 28 30 34 40 42 40 48
37 31 37 35 30 26 22 18 15 13 17 24 26 31 42 48 43 37 36 39 38 37 38 37 38 36 35 36 38 37 37 38 35
35 32 30 29 24 21 21 23 26 31 35 39 41 39 40 40 44 52 49 47 46 46 43 42 40 37 36 38 39 37 33 34 34
27 23 23 23 24 28 30 33 37 43 47 50 53 55 54 54 54 54 60 66 68 66 55 52 48 44 42 42 40 37 32 29 32
18 18 21 24 27 31 35 41 45 49 50 52 54 56 59 61 61 60 61 63 67 71 75 67 61 55 49 49 43 34 37 40 42
13 15 19 25 32 38 41 44 47 47 44 44 45 45 47 49 51 58 63 69 70 69 68 70 68 64 62 61 57 48 41 39 40
12 17 24 30 34 35 36 37 35 35 34 34 38 43 47 51 53 53 57 59 61 64 72 69 66 62 62 68 67 66 61 52 51
15 22 28 33 30 26 28 29 31 35 37 38 42 46 51 56 59 62 62 58 57 60 60 58 66 63 62 62 66 75 76 70 67
14 19 21 19 19 21 25 31 37 37 39 46 53 58 57 58 59 58 59 59 63 56 56 58 57 61 70 74 74 76 78 77 75
17 19 20 20 24 28 32 37 37 41 47 56 58 54 56 60 60 56 54 54 54 64 56 53 55 41 43 47 50 54 68 79 77
17 19 20 24 28 31 33 39 39 44 53 56 50 54 57 57 59 58 53 51 49 44 45 40 43 42 43 40 40 42 44 42 47
12 16 21 27 30 33 36 40 41 46 55 50 48 51 58 58 58 55 54 50 45 42 39 46 42 41 44 47 52 51 50 47 39
14 20 25 29 32 36 37 39 41 48 56 46 44 48 50 51 52 52 52 54 52 39 32 25 30 36 41 44 52 52 56 61 61
15 20 28 32 34 39 39 38 41 46 57 54 49 46 46 50 51 51 50 48 48 45 24 17 28 37 33 32 38 42 45 46 51
Wind_Direction_850mb
156 143 129 126 119 99 104 93 291 306 312 328 327 325 304 288 280 310 311 280 265 277 278 278 265 251 254 265 264 258 260 257 251
141 135 115 59 105 102 89 82 76 61 41 31 16 345 321 291 288 313 298 279 282 282 286 275 264 262 263 261 260 260 258 257 256
97 87 104 126 116 92 93 90 76 56 43 28 10 346 327 314 300 316 319 300 308 290 304 293 279 274 272 267 259 256 256 258 256
105 98 104 93 87 82 69 72 65 54 42 35 30 354 333 329 329 322 316 318 318 312 299 298 285 284 284 274 265 260 252 253 259
119 124 116 101 91 86 64 63 51 41 32 25 10 358 354 352 347 338 341 354 351 331 320 302 287 278 278 274 271 264 256 252 248
121 114 91 82 71 56 33 40 30 16 4 346 337 329 315 320 323 328 327 353 343 337 327 305 297 289 285 282 277 274 270 260 247
115 113 90 69 58 49 35 18 4 329 313 303 300 303 299 303 311 310 303 292 317 324 314 317 320 321 326 322 305 287 278 275 255
96 82 78 74 67 59 48 33 14 343 309 305 308 305 295 299 300 284 283 288 292 296 291 293 296 298 303 305 306 307 290 272 270
78 70 63 57 48 32 16 356 339 325 316 310 307 304 300 291 289 288 281 277 275 276 277 286 284 292 296 292 286 284 282 280 271
73 60 46 30 15 359 343 328 318 311 309 307 303 301 298 295 290 283 275 278 281 283 274 263 262 273 289 292 281 273 265 265 268
61 38 15 358 347 339 334 327 322 316 310 305 302 300 295 293 291 289 284 279 276 272 274 277 269 261 267 272 270 274 272 272 271
40 16 357 345 337 333 331 329 326 321 320 320 317 312 306 304 301 294 289 284 282 278 276 271 268 263 259 261 263 263 267 267 266
349 340 336 333 333 334 333 333 331 330 329 327 323 322 313 307 305 303 298 297 295 286 277 276 272 268 258 259 259 258 258 258 265
327 333 333 331 335 340 336 331 326 326 331 332 329 322 318 312 305 299 289 291 293 293 289 280 272 266 265 263 260 259 259 257 256
340 341 344 345 346 346 347 349 348 344 339 333 330 328 328 328 323 316 303 286 274 281 286 287 280 274 265 264 268 266 263 264 261
358 353 356 356 354 352 348 345 343 343 343 340 337 338 338 337 332 328 322 316 301 274 273 285 285 278 277 275 273 272 271 269 267
358 358 1 356 355 353 351 349 348 350 348 346 344 341 345 344 341 337 332 324 316 308 272 275 282 289 281 278 280 277 274 275 276
20 12 11 9 5 1 356 355 355 357 354 349 343 348 351 348 345 344 339 332 324 313 295 262 272 283 285 284 281 278 278 278 271
57 35 20 11 7 3 360 358 359 0 360 356 349 349 351 353 352 355 353 347 345 343 323 264 269 279 275 283 283 286 278 272 269
44 28 21 15 11 7 2 1 1 0 3 9 359 356 352 351 353 353 354 359 357 354 359 309 290 288 288 290 288 290 286 274 264